Year,Month,Day,Hour,Minute,Value (Times are PST for windgust in km/hr)
2017,11,28,00,00,46.70
2017,11,28,00,01,48.30
2017,11,28,00,02,51.50
2017,11,28,00,03,57.90
2017,11,28,00,04,38.60
2017,11,28,00,05,53.10
2017,11,28,00,06,46.70
2017,11,28,00,07,54.70
2017,11,28,00,08,57.90
2017,11,28,00,09,43.50
2017,11,28,00,10,54.70
2017,11,28,00,11,43.50
2017,11,28,00,12,38.60
2017,11,28,00,13,37.00
2017,11,28,00,14,38.60
2017,11,28,00,15,30.60
2017,11,28,00,16,27.40
2017,11,28,00,17,37.00
2017,11,28,00,18,30.60
2017,11,28,00,19,35.40
2017,11,28,00,20,32.20
2017,11,28,00,21,32.20
2017,11,28,00,22,56.30
2017,11,28,00,23,35.40
2017,11,28,00,24,40.20
2017,11,28,00,25,59.50
2017,11,28,00,26,66.00
2017,11,28,00,27,70.80
2017,11,28,00,28,59.50
2017,11,28,00,29,37.00
2017,11,28,00,30,33.80
2017,11,28,00,31,45.10
2017,11,28,00,32,41.80
2017,11,28,00,33,33.80
2017,11,28,00,34,38.60
2017,11,28,00,35,32.20
2017,11,28,00,36,27.40
2017,11,28,00,37,43.50
2017,11,28,00,38,41.80
2017,11,28,00,39,30.60
2017,11,28,00,40,33.80
2017,11,28,00,41,40.20
2017,11,28,00,42,46.70
2017,11,28,00,43,57.90
2017,11,28,00,44,56.30
2017,11,28,00,45,53.10
2017,11,28,00,46,32.20
2017,11,28,00,47,32.20
2017,11,28,00,48,45.10
2017,11,28,00,49,64.40
2017,11,28,00,50,57.90
2017,11,28,00,51,61.20
2017,11,28,00,52,59.50
2017,11,28,00,53,45.10
2017,11,28,00,54,69.20
2017,11,28,00,55,56.30
2017,11,28,00,56,48.30
2017,11,28,00,57,49.90
2017,11,28,00,58,49.90
2017,11,28,00,59,56.30
2017,11,28,01,00,62.70
2017,11,28,01,01,48.30
2017,11,28,01,02,64.40
2017,11,28,01,03,57.90
2017,11,28,01,04,51.50
2017,11,28,01,05,53.10
2017,11,28,01,06,45.10
2017,11,28,01,07,41.80
2017,11,28,01,08,56.30
2017,11,28,01,09,59.50
2017,11,28,01,10,53.10
2017,11,28,01,11,51.50
2017,11,28,01,12,64.40
2017,11,28,01,13,66.00
2017,11,28,01,14,51.50
2017,11,28,01,15,51.50
2017,11,28,01,16,51.50
2017,11,28,01,17,57.90
2017,11,28,01,18,48.30
2017,11,28,01,19,46.70
2017,11,28,01,20,45.10
2017,11,28,01,21,30.60
2017,11,28,01,22,37.00
2017,11,28,01,23,37.00
2017,11,28,01,24,70.80
2017,11,28,01,25,51.50
2017,11,28,01,26,64.40
2017,11,28,01,27,80.50
2017,11,28,01,28,67.60
2017,11,28,01,29,70.80
2017,11,28,01,30,59.50
2017,11,28,01,31,57.90
2017,11,28,01,32,51.50
2017,11,28,01,33,59.50
2017,11,28,01,34,41.80
2017,11,28,01,35,57.90
2017,11,28,01,36,54.70
2017,11,28,01,37,67.60
2017,11,28,01,38,69.20
2017,11,28,01,39,57.90
2017,11,28,01,40,49.90
2017,11,28,01,41,54.70
2017,11,28,01,42,74.00
2017,11,28,01,43,56.30
2017,11,28,01,44,59.50
2017,11,28,01,45,64.40
2017,11,28,01,46,53.10
2017,11,28,01,47,54.70
2017,11,28,01,48,56.30
2017,11,28,01,49,48.30
2017,11,28,01,50,59.50
2017,11,28,01,51,61.20
2017,11,28,01,52,56.30
2017,11,28,01,53,74.00
2017,11,28,01,54,66.00
2017,11,28,01,55,57.90
2017,11,28,01,56,59.50
2017,11,28,01,57,82.10
2017,11,28,01,58,64.40
2017,11,28,01,59,67.60
2017,11,28,02,00,64.40
2017,11,28,02,01,67.60
2017,11,28,02,02,49.90
2017,11,28,02,03,53.10
2017,11,28,02,04,59.50
2017,11,28,02,05,70.80
2017,11,28,02,06,69.20
2017,11,28,02,07,62.70
2017,11,28,02,08,64.40
2017,11,28,02,09,54.70
2017,11,28,02,10,56.30
2017,11,28,02,11,59.50
2017,11,28,02,12,59.50
2017,11,28,02,13,62.70
2017,11,28,02,14,51.50
2017,11,28,02,15,57.90
2017,11,28,02,16,61.20
2017,11,28,02,17,66.00
2017,11,28,02,18,64.40
2017,11,28,02,19,74.00
2017,11,28,02,20,51.50
2017,11,28,02,21,56.30
2017,11,28,02,22,59.50
2017,11,28,02,23,64.40
2017,11,28,02,24,59.50
2017,11,28,02,25,53.10
2017,11,28,02,26,51.50
2017,11,28,02,27,51.50
2017,11,28,02,28,69.20
2017,11,28,02,29,61.20
2017,11,28,02,30,53.10
2017,11,28,02,31,61.20
2017,11,28,02,32,56.30
2017,11,28,02,33,49.90
2017,11,28,02,34,54.70
2017,11,28,02,35,54.70
2017,11,28,02,36,49.90
2017,11,28,02,37,48.30
2017,11,28,02,38,41.80
2017,11,28,02,39,54.70
2017,11,28,02,40,80.50
2017,11,28,02,41,53.10
2017,11,28,02,42,62.70
2017,11,28,02,43,70.80
2017,11,28,02,44,62.70
2017,11,28,02,45,64.40
2017,11,28,02,46,53.10
2017,11,28,02,47,56.30
2017,11,28,02,48,66.00
2017,11,28,02,49,59.50
2017,11,28,02,50,66.00
2017,11,28,02,51,57.90
2017,11,28,02,52,54.70
2017,11,28,02,53,64.40
2017,11,28,02,54,57.90
2017,11,28,02,55,59.50
2017,11,28,02,56,59.50
2017,11,28,02,57,61.20
2017,11,28,02,58,56.30
2017,11,28,02,59,66.00
2017,11,28,03,00,45.10
2017,11,28,03,01,53.10
2017,11,28,03,02,56.30
2017,11,28,03,03,53.10
2017,11,28,03,04,61.20
2017,11,28,03,05,49.90
2017,11,28,03,06,66.00
2017,11,28,03,07,61.20
2017,11,28,03,08,67.60
2017,11,28,03,09,61.20
2017,11,28,03,10,72.40
2017,11,28,03,11,64.40
2017,11,28,03,12,70.80
2017,11,28,03,13,78.80
2017,11,28,03,14,82.10
2017,11,28,03,15,64.40
2017,11,28,03,16,66.00
2017,11,28,03,17,67.60
2017,11,28,03,18,64.40
2017,11,28,03,19,59.50
2017,11,28,03,20,59.50
2017,11,28,03,21,64.40
2017,11,28,03,22,57.90
2017,11,28,03,23,56.30
2017,11,28,03,24,51.50
2017,11,28,03,25,70.80
2017,11,28,03,26,67.60
2017,11,28,03,27,56.30
2017,11,28,03,28,54.70
2017,11,28,03,29,61.20
2017,11,28,03,30,62.70
2017,11,28,03,31,61.20
2017,11,28,03,32,66.00
2017,11,28,03,33,53.10
2017,11,28,03,34,48.30
2017,11,28,03,35,49.90
2017,11,28,03,36,54.70
2017,11,28,03,37,41.80
2017,11,28,03,38,43.50
2017,11,28,03,39,56.30
2017,11,28,03,40,56.30
2017,11,28,03,41,51.50
2017,11,28,03,42,41.80
2017,11,28,03,43,43.50
2017,11,28,03,44,54.70
2017,11,28,03,45,43.50
2017,11,28,03,46,53.10
2017,11,28,03,47,61.20
2017,11,28,03,48,56.30
2017,11,28,03,49,59.50
2017,11,28,03,50,48.30
2017,11,28,03,51,66.00
2017,11,28,03,52,74.00
2017,11,28,03,53,61.20
2017,11,28,03,54,51.50
2017,11,28,03,55,59.50
2017,11,28,03,56,48.30
2017,11,28,03,57,56.30
2017,11,28,03,58,53.10
2017,11,28,03,59,51.50
2017,11,28,04,00,37.00
2017,11,28,04,01,61.20
2017,11,28,04,02,43.50
2017,11,28,04,03,32.20
2017,11,28,04,04,51.50
2017,11,28,04,05,41.80
2017,11,28,04,06,37.00
2017,11,28,04,07,45.10
2017,11,28,04,08,43.50
2017,11,28,04,09,46.70
2017,11,28,04,10,29.00
2017,11,28,04,11,37.00
2017,11,28,04,12,33.80
2017,11,28,04,13,16.10
2017,11,28,04,14,17.70
2017,11,28,04,15,17.70
2017,11,28,04,16,24.20
2017,11,28,04,17,20.90
2017,11,28,04,18,12.90
2017,11,28,04,19,17.70
2017,11,28,04,20,20.90
2017,11,28,04,21,24.20
2017,11,28,04,22,20.90
2017,11,28,04,23,19.30
2017,11,28,04,24,20.90
2017,11,28,04,25,22.50
2017,11,28,04,26,20.90
2017,11,28,04,27,17.70
2017,11,28,04,28,20.90
2017,11,28,04,29,16.10
2017,11,28,04,30,17.70
2017,11,28,04,31,20.90
2017,11,28,04,32,24.20
2017,11,28,04,33,17.70
2017,11,28,04,34,17.70
2017,11,28,04,35,17.70
2017,11,28,04,36,20.90
2017,11,28,04,37,19.30
2017,11,28,04,38,19.30
2017,11,28,04,39,17.70
2017,11,28,04,40,16.10
2017,11,28,04,41,20.90
2017,11,28,04,42,24.20
2017,11,28,04,43,24.20
2017,11,28,04,44,22.50
2017,11,28,04,45,22.50
2017,11,28,04,46,27.40
2017,11,28,04,47,22.50
2017,11,28,04,48,27.40
2017,11,28,04,49,30.60
2017,11,28,04,50,27.40
2017,11,28,04,51,22.50
2017,11,28,04,52,17.70
2017,11,28,04,53,22.50
2017,11,28,04,54,37.00
2017,11,28,04,55,33.80
2017,11,28,04,56,24.20
2017,11,28,04,57,20.90
2017,11,28,04,58,38.60
2017,11,28,04,59,32.20
2017,11,28,05,00,30.60
2017,11,28,05,01,25.70
2017,11,28,05,02,30.60
2017,11,28,05,03,24.20
2017,11,28,05,04,30.60
2017,11,28,05,05,33.80
2017,11,28,05,06,22.50
2017,11,28,05,07,19.30
2017,11,28,05,08,24.20
2017,11,28,05,09,24.20
2017,11,28,05,10,25.70
2017,11,28,05,11,27.40
2017,11,28,05,12,16.10
2017,11,28,05,13,19.30
2017,11,28,05,14,14.50
2017,11,28,05,15,12.90
2017,11,28,05,16,22.50
2017,11,28,05,17,27.40
2017,11,28,05,18,24.20
2017,11,28,05,19,22.50
2017,11,28,05,20,24.20
2017,11,28,05,21,17.70
2017,11,28,05,22,17.70
2017,11,28,05,23,17.70
2017,11,28,05,24,17.70
2017,11,28,05,25,14.50
2017,11,28,05,26,16.10
2017,11,28,05,27,19.30
2017,11,28,05,28,17.70
2017,11,28,05,29,19.30
2017,11,28,05,30,16.10
2017,11,28,05,31,19.30
2017,11,28,05,32,19.30
2017,11,28,05,33,17.70
2017,11,28,05,34,17.70
2017,11,28,05,35,17.70
2017,11,28,05,36,14.50
2017,11,28,05,37,4.80
2017,11,28,05,38,3.20
2017,11,28,05,39,9.60
2017,11,28,05,40,14.50
2017,11,28,05,41,17.70
2017,11,28,05,42,14.50
2017,11,28,05,43,12.90
2017,11,28,05,44,11.30
2017,11,28,05,45,12.90
2017,11,28,05,46,12.90
2017,11,28,05,47,11.30
2017,11,28,05,48,19.30
2017,11,28,05,49,14.50
2017,11,28,05,50,14.50
2017,11,28,05,51,16.10
2017,11,28,05,52,9.60
2017,11,28,05,53,16.10
2017,11,28,05,54,16.10
2017,11,28,05,55,14.50
2017,11,28,05,56,14.50
2017,11,28,05,57,6.40
2017,11,28,05,58,6.40
2017,11,28,05,59,11.30
2017,11,28,06,00,11.30
2017,11,28,06,01,11.30
2017,11,28,06,02,12.90
2017,11,28,06,03,12.90
2017,11,28,06,04,12.90
2017,11,28,06,05,12.90
2017,11,28,06,06,8.10
2017,11,28,06,07,9.60
2017,11,28,06,08,11.30
2017,11,28,06,09,9.60
2017,11,28,06,10,12.90
2017,11,28,06,11,11.30
2017,11,28,06,12,12.90
2017,11,28,06,13,12.90
2017,11,28,06,14,11.30
2017,11,28,06,15,6.40
2017,11,28,06,16,6.40
2017,11,28,06,17,4.80
2017,11,28,06,18,4.80
2017,11,28,06,19,4.80
2017,11,28,06,20,8.10
2017,11,28,06,21,6.40
2017,11,28,06,22,4.80
2017,11,28,06,25,4.80
2017,11,28,06,26,8.10
2017,11,28,06,27,9.60
2017,11,28,06,28,9.60
2017,11,28,06,29,11.30
2017,11,28,06,30,11.30
2017,11,28,06,31,12.90
2017,11,28,06,32,11.30
2017,11,28,06,33,16.10
2017,11,28,06,34,16.10
2017,11,28,06,35,16.10
2017,11,28,06,36,16.10
2017,11,28,06,37,16.10
2017,11,28,06,38,12.90
2017,11,28,06,39,11.30
2017,11,28,06,40,9.60
2017,11,28,06,41,12.90
2017,11,28,06,42,11.30
2017,11,28,06,43,12.90
2017,11,28,06,44,8.10
2017,11,28,06,45,9.60
2017,11,28,06,46,11.30
2017,11,28,06,47,8.10
2017,11,28,06,48,11.30
2017,11,28,06,49,12.90
2017,11,28,06,50,12.90
2017,11,28,06,51,11.30
2017,11,28,06,52,14.50
2017,11,28,06,53,11.30
2017,11,28,06,54,11.30
2017,11,28,06,55,9.60
2017,11,28,06,56,8.10
2017,11,28,06,57,8.10
2017,11,28,06,58,8.10
2017,11,28,06,59,8.10
2017,11,28,07,00,9.60
2017,11,28,07,01,9.60
2017,11,28,07,02,8.10
2017,11,28,07,03,9.60
2017,11,28,07,04,11.30
2017,11,28,07,05,11.30
2017,11,28,07,06,9.60
2017,11,28,07,07,8.10
2017,11,28,07,08,11.30
2017,11,28,07,09,11.30
2017,11,28,07,10,11.30
2017,11,28,07,11,11.30
2017,11,28,07,12,8.10
2017,11,28,07,13,8.10
2017,11,28,07,14,9.60
2017,11,28,07,15,8.10
2017,11,28,07,16,6.40
2017,11,28,07,17,8.10
2017,11,28,07,18,8.10
2017,11,28,07,19,8.10
2017,11,28,07,20,9.60
2017,11,28,07,21,8.10
2017,11,28,07,22,6.40
2017,11,28,07,23,4.80
2017,11,28,07,24,3.20
2017,11,28,07,25,3.20
2017,11,28,07,26,6.40
2017,11,28,07,27,3.20
2017,11,28,07,28,4.80
2017,11,28,07,29,6.40
2017,11,28,07,30,6.40
2017,11,28,07,31,6.40
2017,11,28,07,32,4.80
2017,11,28,07,33,4.80
2017,11,28,07,34,4.80
2017,11,28,07,35,4.80
2017,11,28,07,36,4.80
2017,11,28,07,37,3.20
2017,11,28,07,38,3.20
2017,11,28,07,39,3.20
2017,11,28,07,40,4.80
2017,11,28,07,41,4.80
2017,11,28,07,42,3.20
2017,11,28,07,43,3.20
2017,11,28,07,44,3.20
2017,11,28,07,45,1.60
2017,11,28,07,46,1.60
2017,11,28,07,54,6.40
2017,11,28,07,55,6.40
2017,11,28,07,56,6.40
2017,11,28,07,57,6.40
2017,11,28,07,58,4.80
2017,11,28,07,59,4.80
2017,11,28,08,00,4.80
2017,11,28,08,01,4.80
2017,11,28,08,02,6.40
2017,11,28,08,03,6.40
2017,11,28,08,04,8.10
2017,11,28,08,05,8.10
2017,11,28,08,06,6.40
2017,11,28,08,07,8.10
2017,11,28,08,08,9.60
2017,11,28,08,09,8.10
2017,11,28,08,10,8.10
2017,11,28,08,11,6.40
2017,11,28,08,12,8.10
2017,11,28,08,13,6.40
2017,11,28,08,14,4.80
2017,11,28,08,15,4.80
2017,11,28,08,16,3.20
2017,11,28,08,17,3.20
2017,11,28,08,18,3.20
2017,11,28,08,19,3.20
2017,11,28,08,20,3.20
2017,11,28,08,21,3.20
2017,11,28,08,22,1.60
2017,11,28,08,25,1.60
2017,11,28,08,26,4.80
2017,11,28,08,27,4.80
2017,11,28,08,28,6.40
2017,11,28,08,29,4.80
2017,11,28,08,30,4.80
2017,11,28,08,31,4.80
2017,11,28,08,36,4.80
2017,11,28,08,37,6.40
2017,11,28,08,38,8.10
2017,11,28,08,39,6.40
2017,11,28,08,40,6.40
2017,11,28,08,41,6.40
2017,11,28,08,42,4.80
2017,11,28,08,43,6.40
2017,11,28,08,44,4.80
2017,11,28,08,45,3.20
2017,11,28,08,46,3.20
2017,11,28,08,47,1.60
2017,11,28,08,48,1.60
2017,11,28,08,49,1.60
2017,11,28,08,55,3.20
2017,11,28,08,56,4.80
2017,11,28,08,57,4.80
2017,11,28,08,58,4.80
2017,11,28,08,59,4.80
2017,11,28,09,00,4.80
2017,11,28,09,01,4.80
2017,11,28,09,02,4.80
2017,11,28,09,03,4.80
2017,11,28,09,04,6.40
2017,11,28,09,05,6.40
2017,11,28,09,06,8.10
2017,11,28,09,07,6.40
2017,11,28,09,08,4.80
2017,11,28,09,09,4.80
2017,11,28,09,10,3.20
2017,11,28,09,11,4.80
2017,11,28,09,12,4.80
2017,11,28,09,13,4.80
2017,11,28,09,14,4.80
2017,11,28,09,15,3.20
2017,11,28,09,16,1.60
2017,11,28,09,18,3.20
2017,11,28,09,19,4.80
2017,11,28,09,20,4.80
2017,11,28,09,21,3.20
2017,11,28,09,22,3.20
2017,11,28,09,23,3.20
2017,11,28,09,24,4.80
2017,11,28,09,25,3.20
2017,11,28,09,26,6.40
2017,11,28,09,27,6.40
2017,11,28,09,28,6.40
2017,11,28,09,29,6.40
2017,11,28,09,30,6.40
2017,11,28,09,31,4.80
2017,11,28,09,32,3.20
2017,11,28,09,33,1.60
2017,11,28,09,35,4.80
2017,11,28,09,36,6.40
2017,11,28,09,37,6.40
2017,11,28,09,38,1.60
2017,11,28,09,39,3.20
2017,11,28,09,40,3.20
2017,11,28,09,41,3.20
2017,11,28,09,42,4.80
2017,11,28,09,43,3.20
2017,11,28,09,44,3.20
2017,11,28,09,45,3.20
2017,11,28,09,46,1.60
2017,11,28,09,47,1.60
2017,11,28,09,48,3.20
2017,11,28,09,49,4.80
2017,11,28,09,50,6.40
2017,11,28,09,51,6.40
2017,11,28,09,52,3.20
2017,11,28,09,53,1.60
2017,11,28,09,54,16.10
2017,11,28,09,55,9.60
2017,11,28,09,56,4.80
2017,11,28,09,57,4.80
2017,11,28,09,58,4.80
2017,11,28,09,59,6.40
2017,11,28,10,00,3.20
2017,11,28,10,01,1.60
2017,11,28,10,02,1.60
2017,11,28,10,03,3.20
2017,11,28,10,04,4.80
2017,11,28,10,05,4.80
2017,11,28,10,06,4.80
2017,11,28,10,07,4.80
2017,11,28,10,08,11.30
2017,11,28,10,09,9.60
2017,11,28,10,10,9.60
2017,11,28,10,11,11.30
2017,11,28,10,12,11.30
2017,11,28,10,13,8.10
2017,11,28,10,14,12.90
2017,11,28,10,15,12.90
2017,11,28,10,16,12.90
2017,11,28,10,17,14.50
2017,11,28,10,18,19.30
2017,11,28,10,19,14.50
2017,11,28,10,20,14.50
2017,11,28,10,21,16.10
2017,11,28,10,22,11.30
2017,11,28,10,23,12.90
2017,11,28,10,24,16.10
2017,11,28,10,25,11.30
2017,11,28,10,26,9.60
2017,11,28,10,27,12.90
2017,11,28,10,28,9.60
2017,11,28,10,29,14.50
2017,11,28,10,30,12.90
2017,11,28,10,31,20.90
2017,11,28,10,32,17.70
2017,11,28,10,33,20.90
2017,11,28,10,34,16.10
2017,11,28,10,35,19.30
2017,11,28,10,36,19.30
2017,11,28,10,37,14.50
2017,11,28,10,38,20.90
2017,11,28,10,39,20.90
2017,11,28,10,40,16.10
2017,11,28,10,41,16.10
2017,11,28,10,42,12.90
2017,11,28,10,43,11.30
2017,11,28,10,44,17.70
2017,11,28,10,45,16.10
2017,11,28,10,46,11.30
2017,11,28,10,47,12.90
2017,11,28,10,48,9.60
2017,11,28,10,49,6.40
2017,11,28,10,50,8.10
2017,11,28,10,51,11.30
2017,11,28,10,52,11.30
2017,11,28,10,53,11.30
2017,11,28,10,54,12.90
2017,11,28,10,55,8.10
2017,11,28,10,56,17.70
2017,11,28,10,57,14.50
2017,11,28,10,58,8.10
2017,11,28,10,59,11.30
2017,11,28,11,00,9.60
2017,11,28,11,01,8.10
2017,11,28,11,02,11.30
2017,11,28,11,03,20.90
2017,11,28,11,04,22.50
2017,11,28,11,05,14.50
2017,11,28,11,06,16.10
2017,11,28,11,07,16.10
2017,11,28,11,08,12.90
2017,11,28,11,09,14.50
2017,11,28,11,10,12.90
2017,11,28,11,11,9.60
2017,11,28,11,12,9.60
2017,11,28,11,13,11.30
2017,11,28,11,14,14.50
2017,11,28,11,15,16.10
2017,11,28,11,16,12.90
2017,11,28,11,17,11.30
2017,11,28,11,18,11.30
2017,11,28,11,19,6.40
2017,11,28,11,20,6.40
2017,11,28,11,21,3.20
2017,11,28,11,22,4.80
2017,11,28,11,23,4.80
2017,11,28,11,24,6.40
2017,11,28,11,25,4.80
2017,11,28,11,26,3.20
2017,11,28,11,27,9.60
2017,11,28,11,28,8.10
2017,11,28,11,29,4.80
2017,11,28,11,30,4.80
2017,11,28,11,31,1.60
2017,11,28,11,32,3.20
2017,11,28,11,33,4.80
2017,11,28,11,34,3.20
2017,11,28,11,35,3.20
2017,11,28,11,36,4.80
2017,11,28,11,37,6.40
2017,11,28,11,38,12.90
2017,11,28,11,39,14.50
2017,11,28,11,40,9.60
2017,11,28,11,41,8.10
2017,11,28,11,42,8.10
2017,11,28,11,43,8.10
2017,11,28,11,44,1.60
2017,11,28,11,45,4.80
2017,11,28,11,46,3.20
2017,11,28,11,47,1.60
2017,11,28,11,48,3.20
2017,11,28,11,49,3.20
2017,11,28,11,50,4.80
2017,11,28,11,51,4.80
2017,11,28,11,52,4.80
2017,11,28,11,53,3.20
2017,11,28,11,59,3.20
2017,11,28,12,00,3.20
2017,11,28,12,01,1.60
2017,11,28,12,04,6.40
2017,11,28,12,05,6.40
2017,11,28,12,06,3.20
2017,11,28,12,07,4.80
2017,11,28,12,08,3.20
2017,11,28,12,09,3.20
2017,11,28,12,10,3.20
2017,11,28,12,11,4.80
2017,11,28,12,12,4.80
2017,11,28,12,13,6.40
2017,11,28,12,14,6.40
2017,11,28,12,15,3.20
2017,11,28,12,16,4.80
2017,11,28,12,17,4.80
2017,11,28,12,18,3.20
2017,11,28,12,21,3.20
2017,11,28,12,22,1.60
2017,11,28,12,23,1.60
2017,11,28,12,24,4.80
2017,11,28,12,25,4.80
2017,11,28,12,26,3.20
2017,11,28,12,27,1.60
2017,11,28,12,29,1.60
2017,11,28,12,30,3.20
2017,11,28,12,31,4.80
2017,11,28,12,32,6.40
2017,11,28,12,33,6.40
2017,11,28,12,34,6.40
2017,11,28,12,35,9.60
2017,11,28,12,36,11.30
2017,11,28,12,37,9.60
2017,11,28,12,38,8.10
2017,11,28,12,39,9.60
2017,11,28,12,40,8.10
2017,11,28,12,41,6.40
2017,11,28,12,42,8.10
2017,11,28,12,43,8.10
2017,11,28,12,44,6.40
2017,11,28,12,45,6.40
2017,11,28,12,46,4.80
2017,11,28,12,47,6.40
2017,11,28,12,48,6.40
2017,11,28,12,49,8.10
2017,11,28,12,50,8.10
2017,11,28,12,51,6.40
2017,11,28,12,52,4.80
2017,11,28,12,53,4.80
2017,11,28,12,54,4.80
2017,11,28,12,55,8.10
2017,11,28,12,56,4.80
2017,11,28,12,57,6.40
2017,11,28,12,58,8.10
2017,11,28,12,59,6.40
2017,11,28,13,00,4.80
2017,11,28,13,01,6.40
2017,11,28,13,02,8.10
2017,11,28,13,03,8.10
2017,11,28,13,04,8.10
2017,11,28,13,05,8.10
2017,11,28,13,06,9.60
2017,11,28,13,07,9.60
2017,11,28,13,08,11.30
2017,11,28,13,09,12.90
2017,11,28,13,10,9.60
2017,11,28,13,11,11.30
2017,11,28,13,12,14.50
2017,11,28,13,13,12.90
2017,11,28,13,14,12.90
2017,11,28,13,15,14.50
2017,11,28,13,16,14.50
2017,11,28,13,17,9.60
2017,11,28,13,18,11.30
2017,11,28,13,19,11.30
2017,11,28,13,20,8.10
2017,11,28,13,21,9.60
2017,11,28,13,22,11.30
2017,11,28,13,23,8.10
2017,11,28,13,24,12.90
2017,11,28,13,25,14.50
2017,11,28,13,26,14.50
2017,11,28,13,27,12.90
2017,11,28,13,28,8.10
2017,11,28,13,29,6.40
2017,11,28,13,30,6.40
2017,11,28,13,31,9.60
2017,11,28,13,32,6.40
2017,11,28,13,33,6.40
2017,11,28,13,34,4.80
2017,11,28,13,35,6.40
2017,11,28,13,36,6.40
2017,11,28,13,37,4.80
2017,11,28,13,38,4.80
2017,11,28,13,39,8.10
2017,11,28,13,40,4.80
2017,11,28,13,41,9.60
2017,11,28,13,42,4.80
2017,11,28,13,43,11.30
2017,11,28,13,44,11.30
2017,11,28,13,45,6.40
2017,11,28,13,46,9.60
2017,11,28,13,47,12.90
2017,11,28,13,48,9.60
2017,11,28,13,49,12.90
2017,11,28,13,50,12.90
2017,11,28,13,51,14.50
2017,11,28,13,52,16.10
2017,11,28,13,53,19.30
2017,11,28,13,54,16.10
2017,11,28,13,55,16.10
2017,11,28,13,56,14.50
2017,11,28,13,57,14.50
2017,11,28,13,58,16.10
2017,11,28,13,59,16.10
2017,11,28,14,00,19.30
2017,11,28,14,01,16.10
2017,11,28,14,02,14.50
2017,11,28,14,03,12.90
2017,11,28,14,04,12.90
2017,11,28,14,05,6.40
2017,11,28,14,06,11.30
2017,11,28,14,07,9.60
2017,11,28,14,08,11.30
2017,11,28,14,09,11.30
2017,11,28,14,10,14.50
2017,11,28,14,11,6.40
2017,11,28,14,12,11.30
2017,11,28,14,13,9.60
2017,11,28,14,14,6.40
2017,11,28,14,15,11.30
2017,11,28,14,16,11.30
2017,11,28,14,17,11.30
2017,11,28,14,18,8.10
2017,11,28,14,19,11.30
2017,11,28,14,20,9.60
2017,11,28,14,21,12.90
2017,11,28,14,22,8.10
2017,11,28,14,23,11.30
2017,11,28,14,24,6.40
2017,11,28,14,25,9.60
2017,11,28,14,26,12.90
2017,11,28,14,27,14.50
2017,11,28,14,28,12.90
2017,11,28,14,29,12.90
2017,11,28,14,30,14.50
2017,11,28,14,31,9.60
2017,11,28,14,32,11.30
2017,11,28,14,33,12.90
2017,11,28,14,34,16.10
2017,11,28,14,35,17.70
2017,11,28,14,36,14.50
2017,11,28,14,37,16.10
2017,11,28,14,38,12.90
2017,11,28,14,39,12.90
2017,11,28,14,40,12.90
2017,11,28,14,41,17.70
2017,11,28,14,42,16.10
2017,11,28,14,43,12.90
2017,11,28,14,44,16.10
2017,11,28,14,45,19.30
2017,11,28,14,46,14.50
2017,11,28,14,47,14.50
2017,11,28,14,48,16.10
2017,11,28,14,49,14.50
2017,11,28,14,50,9.60
2017,11,28,14,51,12.90
2017,11,28,14,52,11.30
2017,11,28,14,53,12.90
2017,11,28,14,54,12.90
2017,11,28,14,55,14.50
2017,11,28,14,56,8.10
2017,11,28,14,57,12.90
2017,11,28,14,58,16.10
2017,11,28,14,59,11.30
2017,11,28,15,00,11.30
2017,11,28,15,01,9.60
2017,11,28,15,02,12.90
2017,11,28,15,03,14.50
2017,11,28,15,04,12.90
2017,11,28,15,05,11.30
2017,11,28,15,06,11.30
2017,11,28,15,07,14.50
2017,11,28,15,08,16.10
2017,11,28,15,09,14.50
2017,11,28,15,10,16.10
2017,11,28,15,11,12.90
2017,11,28,15,12,12.90
2017,11,28,15,13,11.30
2017,11,28,15,14,9.60
2017,11,28,15,15,9.60
2017,11,28,15,16,9.60
2017,11,28,15,17,9.60
2017,11,28,15,18,6.40
2017,11,28,15,19,6.40
2017,11,28,15,20,11.30
2017,11,28,15,21,9.60
2017,11,28,15,22,9.60
2017,11,28,15,23,6.40
2017,11,28,15,24,8.10
2017,11,28,15,25,6.40
2017,11,28,15,26,6.40
2017,11,28,15,27,8.10
2017,11,28,15,28,9.60
2017,11,28,15,29,11.30
2017,11,28,15,30,9.60
2017,11,28,15,31,9.60
2017,11,28,15,32,9.60
2017,11,28,15,33,9.60
2017,11,28,15,34,6.40
2017,11,28,15,35,9.60
2017,11,28,15,36,9.60
2017,11,28,15,37,11.30
2017,11,28,15,38,9.60
2017,11,28,15,39,11.30
2017,11,28,15,40,14.50
2017,11,28,15,41,14.50
2017,11,28,15,42,14.50
2017,11,28,15,43,11.30
2017,11,28,15,44,11.30
2017,11,28,15,45,11.30
2017,11,28,15,46,6.40
2017,11,28,15,47,4.80
2017,11,28,15,48,6.40
2017,11,28,15,49,6.40
2017,11,28,15,50,8.10
2017,11,28,15,51,6.40
2017,11,28,15,52,4.80
2017,11,28,15,53,4.80
2017,11,28,15,54,4.80
2017,11,28,15,55,6.40
2017,11,28,15,56,3.20
2017,11,28,15,57,3.20
2017,11,28,15,58,4.80
2017,11,28,15,59,3.20
2017,11,28,16,00,1.60
2017,11,28,16,01,3.20
2017,11,28,16,02,1.60
2017,11,28,16,03,1.60
2017,11,28,16,05,1.60
2017,11,28,16,06,4.80
2017,11,28,16,07,3.20
2017,11,28,16,08,4.80
2017,11,28,16,09,4.80
2017,11,28,16,10,4.80
2017,11,28,16,11,3.20
2017,11,28,16,12,4.80
2017,11,28,16,13,3.20
2017,11,28,16,14,1.60
2017,11,28,16,23,6.40
2017,11,28,16,24,6.40
2017,11,28,16,25,6.40
2017,11,28,16,26,6.40
2017,11,28,16,27,3.20
2017,11,28,16,28,1.60
2017,11,28,16,29,1.60
2017,11,28,16,30,4.80
2017,11,28,16,31,4.80
2017,11,28,16,32,3.20
2017,11,28,16,33,4.80
2017,11,28,16,34,4.80
2017,11,28,16,35,4.80
2017,11,28,16,36,4.80
2017,11,28,16,37,3.20
2017,11,28,16,39,6.40
2017,11,28,16,40,6.40
2017,11,28,16,41,4.80
2017,11,28,16,42,4.80
2017,11,28,16,43,4.80
2017,11,28,16,44,1.60
2017,11,28,16,45,3.20
2017,11,28,16,46,4.80
2017,11,28,16,47,6.40
2017,11,28,16,48,6.40
2017,11,28,16,49,6.40
2017,11,28,16,50,3.20
2017,11,28,16,51,3.20
2017,11,28,16,52,4.80
2017,11,28,16,53,3.20
2017,11,28,17,02,4.80
2017,11,28,17,03,3.20
2017,11,28,17,04,3.20
2017,11,28,17,05,1.60
2017,11,28,17,07,1.60
2017,11,28,18,08,1.60
2017,11,28,18,09,4.80
2017,11,28,18,10,3.20
2017,11,28,18,11,3.20
2017,11,28,18,12,3.20
2017,11,28,18,13,4.80
2017,11,28,18,14,4.80
2017,11,28,18,15,4.80
2017,11,28,18,16,4.80
2017,11,28,18,17,4.80
2017,11,28,18,18,4.80
2017,11,28,18,19,4.80
2017,11,28,18,20,4.80
2017,11,28,18,21,4.80
2017,11,28,18,22,4.80
2017,11,28,18,23,6.40
2017,11,28,18,24,8.10
2017,11,28,18,25,6.40
2017,11,28,18,26,8.10
2017,11,28,18,27,8.10
2017,11,28,18,28,6.40
2017,11,28,18,29,11.30
2017,11,28,18,30,8.10
2017,11,28,18,31,9.60
2017,11,28,18,32,9.60
2017,11,28,18,33,8.10
2017,11,28,18,34,8.10
2017,11,28,18,35,8.10
2017,11,28,18,36,6.40
2017,11,28,18,37,6.40
2017,11,28,18,38,6.40
2017,11,28,18,39,4.80
2017,11,28,18,40,4.80
2017,11,28,18,41,4.80
2017,11,28,18,42,3.20
2017,11,28,18,43,3.20
2017,11,28,18,44,3.20
2017,11,28,18,45,3.20
2017,11,28,18,46,4.80
2017,11,28,18,47,3.20
2017,11,28,18,48,3.20
2017,11,28,18,49,3.20
2017,11,28,18,50,4.80
2017,11,28,18,51,3.20
2017,11,28,18,52,4.80
2017,11,28,18,53,4.80
2017,11,28,18,54,3.20
2017,11,28,18,55,3.20
2017,11,28,18,56,3.20
2017,11,28,18,57,3.20
2017,11,28,18,58,3.20
2017,11,28,18,59,3.20
2017,11,28,19,01,3.20
2017,11,28,19,02,4.80
2017,11,28,19,03,4.80
2017,11,28,19,04,4.80
2017,11,28,19,05,6.40
2017,11,28,19,06,6.40
2017,11,28,19,07,4.80
2017,11,28,19,08,6.40
2017,11,28,19,09,4.80
2017,11,28,19,10,8.10
2017,11,28,19,11,8.10
2017,11,28,19,12,8.10
2017,11,28,19,13,8.10
2017,11,28,19,14,8.10
2017,11,28,19,15,6.40
2017,11,28,19,16,6.40
2017,11,28,19,17,6.40
2017,11,28,19,18,6.40
2017,11,28,19,19,6.40
2017,11,28,19,20,8.10
2017,11,28,19,21,9.60
2017,11,28,19,22,9.60
2017,11,28,19,23,9.60
2017,11,28,19,24,9.60
2017,11,28,19,25,8.10
2017,11,28,19,26,8.10
2017,11,28,19,27,9.60
2017,11,28,19,28,11.30
2017,11,28,19,29,9.60
2017,11,28,19,30,9.60
2017,11,28,19,31,9.60
2017,11,28,19,32,11.30
2017,11,28,19,33,9.60